IRIDIUM 44 (25078 NORAD) Tracking and Keplerian Element Data

This shows tracking and keplerian element data for the satellite.

Feedback or suggestion? Click here.




ElementValue
Catalog25078
NameIRIDIUM 44
Epoch Orbit42452
Epoch Day34.93375546
Epoch Year2025
RAAN277.5202
Inclination86.3933
Eccentricity0.0003884
Argument of Perigee95.3466
Mean Anonmoly264.8177
Mean Motion14.40022302
Decay Rate8.47E-06
L11 25078U 97077B 25034.93375546 .00000847 00000+0 26264-3 0 9999
L22 25078 86.3933 277.5202 0003884 95.3466 264.8177 14.40022302424527



Live tracking and technical data element details for IRIDIUM 44 (NORAD 25078). IRIDIUM 44 can be tracked NOW for your location showing map with azimuth and elevation plus other details from your city location.







IsCatalogInMostPopularTable: catalog: 25078, numindb: 519
Update: records affected: 1



GetName: 25078 IRIDIUM 44

Hit Count: updated at: Thu, 15 May 2025 10:41:43 GMT